Back to catalog

STARLINK-31498

AliveCommunicationsVLEO
NORAD 59189·PAYLOAD·🇺🇸 United States

Launched Mar 10, 2024 from Cape Canaveral Space Force Station

Loading…

Next Passes (next 24 hours)

TLE

FreshSource: CelesTrak SupGP

Epoch: Sep 14, 2026, 20:57 UTC

1 59189C 24045M   26257.87340278 -.00026086  00000+0 -94500-3 0  2579
2 59189  43.0019 104.4236 0001326 269.1804   3.4145 15.27586173    16

Track STARLINK-31498 in real time with AllMySat

Download on the App Store